Time,TemperatureF,DewpointF,PressureIn,WindDirection,WindDirectionDegrees,WindSpeedMPH,WindSpeedGustMPH,Humidity,HourlyPrecipIn,Conditions,Clouds,dailyrainin,SoftwareType,DateUTC
2013-11-26 00:08:00,36.7,35.0,30.13,ESE,103,6.0,-999.0,93,-99.99,,,0.12,weatherlink.com 1.10,2013-11-26 05:08:00,
2013-11-26 00:23:00,36.8,35.0,30.14,SE,134,7.0,-999.0,93,-99.99,,,0.13,weatherlink.com 1.10,2013-11-26 05:23:00,
2013-11-26 00:38:00,36.8,35.0,30.13,ESE,103,7.0,-999.0,93,-99.99,,,0.13,weatherlink.com 1.10,2013-11-26 05:38:00,
2013-11-26 00:53:00,36.8,35.0,30.12,ESE,119,4.0,-999.0,93,-99.99,,,0.14,weatherlink.com 1.10,2013-11-26 05:53:00,
2013-11-26 01:08:00,36.9,35.0,30.11,ESE,109,7.0,-999.0,93,-99.99,,,0.14,weatherlink.com 1.10,2013-11-26 06:08:00,
2013-11-26 01:23:00,37.1,35.0,30.10,South,176,7.0,-999.0,93,-99.99,,,0.15,weatherlink.com 1.10,2013-11-26 06:23:00,
2013-11-26 01:38:00,37.3,36.0,30.10,East,100,2.0,-999.0,93,-99.99,,,0.15,weatherlink.com 1.10,2013-11-26 06:38:00,
2013-11-26 01:53:00,37.5,35.0,30.09,SE,134,4.0,-999.0,92,-99.99,,,0.16,weatherlink.com 1.10,2013-11-26 06:53:00,
2013-11-26 02:08:00,37.7,36.0,30.09,SE,127,5.0,-999.0,92,-99.99,,,0.16,weatherlink.com 1.10,2013-11-26 07:08:00,
2013-11-26 02:23:00,37.9,36.0,30.08,SE,146,4.0,-999.0,92,-99.99,,,0.17,weatherlink.com 1.10,2013-11-26 07:23:00,
2013-11-26 02:38:00,38.5,36.0,30.09,SSE,161,2.0,-999.0,92,-99.99,,,0.18,weatherlink.com 1.10,2013-11-26 07:38:00,
2013-11-26 02:53:00,38.7,37.0,30.09,ESE,120,8.0,-999.0,92,-99.99,,,0.18,weatherlink.com 1.10,2013-11-26 07:53:00,
2013-11-26 03:08:00,38.9,37.0,30.07,SE,134,5.0,-999.0,92,-99.99,,,0.19,weatherlink.com 1.10,2013-11-26 08:08:00,
2013-11-26 03:23:00,39.2,37.0,30.08,SSE,153,4.0,-999.0,92,-99.99,,,0.19,weatherlink.com 1.10,2013-11-26 08:23:00,
2013-11-26 03:38:00,39.2,37.0,30.06,SE,138,4.0,-999.0,92,-99.99,,,0.20,weatherlink.com 1.10,2013-11-26 08:38:00,
2013-11-26 03:53:00,39.4,37.0,30.06,SE,138,5.0,-999.0,92,-99.99,,,0.21,weatherlink.com 1.10,2013-11-26 08:53:00,
2013-11-26 04:08:00,39.5,37.0,30.06,ESE,113,4.0,-999.0,92,-99.99,,,0.22,weatherlink.com 1.10,2013-11-26 09:08:00,
2013-11-26 04:23:00,39.5,37.0,30.06,SE,125,7.0,-999.0,92,-99.99,,,0.23,weatherlink.com 1.10,2013-11-26 09:23:00,
2013-11-26 04:38:00,39.7,38.0,30.04,SE,140,11.0,-999.0,92,-99.99,,,0.23,weatherlink.com 1.10,2013-11-26 09:38:00,
2013-11-26 04:53:00,40.0,38.0,30.04,SSE,147,5.0,-999.0,92,-99.99,,,0.24,weatherlink.com 1.10,2013-11-26 09:53:00,
2013-11-26 05:08:00,40.3,38.0,30.04,SSE,161,5.0,-999.0,92,-99.99,,,0.24,weatherlink.com 1.10,2013-11-26 10:08:00,
2013-11-26 05:23:00,40.2,38.0,30.04,SE,124,7.0,-999.0,92,-99.99,,,0.25,weatherlink.com 1.10,2013-11-26 10:23:00,
2013-11-26 05:38:00,40.5,38.0,30.02,SE,138,6.0,-999.0,92,-99.99,,,0.26,weatherlink.com 1.10,2013-11-26 10:38:00,
2013-11-26 05:53:00,40.7,39.0,30.02,SE,132,4.0,-999.0,92,-99.99,,,0.26,weatherlink.com 1.10,2013-11-26 10:53:00,
2013-11-26 06:08:00,40.7,39.0,30.00,ESE,108,2.0,-999.0,92,-99.99,,,0.27,weatherlink.com 1.10,2013-11-26 11:08:00,
2013-11-26 06:24:00,40.7,39.0,29.98,SE,142,0.0,-999.0,92,-99.99,,,0.28,weatherlink.com 1.10,2013-11-26 11:24:00,
2013-11-26 06:39:00,41.0,39.0,29.97,SE,128,6.0,-999.0,92,-99.99,,,0.28,weatherlink.com 1.10,2013-11-26 11:39:00,
2013-11-26 06:54:00,41.3,39.0,29.98,SE,138,0.0,-999.0,92,-99.99,,,0.29,weatherlink.com 1.10,2013-11-26 11:54:00,
2013-11-26 07:09:00,41.6,40.0,29.98,SE,134,5.0,-999.0,92,-99.99,,,0.29,weatherlink.com 1.10,2013-11-26 12:09:00,
2013-11-26 07:24:00,41.9,40.0,29.96,SSE,156,5.0,-999.0,92,-99.99,,,0.30,weatherlink.com 1.10,2013-11-26 12:24:00,
2013-11-26 07:39:00,42.1,40.0,29.96,SE,137,2.0,-999.0,92,-99.99,,,0.31,weatherlink.com 1.10,2013-11-26 12:39:00,
2013-11-26 07:54:00,42.3,40.0,29.96,ESE,122,6.0,-999.0,92,-99.99,,,0.31,weatherlink.com 1.10,2013-11-26 12:54:00,
2013-11-26 08:09:00,42.6,41.0,29.96,ESE,102,1.0,-999.0,92,-99.99,,,0.32,weatherlink.com 1.10,2013-11-26 13:09:00,
2013-11-26 08:24:00,42.8,41.0,29.96,ESE,112,0.0,-999.0,92,-99.99,,,0.32,weatherlink.com 1.10,2013-11-26 13:24:00,
2013-11-26 08:39:00,42.9,41.0,29.94,ESE,114,4.0,-999.0,92,-99.99,,,0.33,weatherlink.com 1.10,2013-11-26 13:39:00,
2013-11-26 08:54:00,42.9,41.0,29.93,ESE,111,5.0,-999.0,92,-99.99,,,0.34,weatherlink.com 1.10,2013-11-26 13:54:00,
2013-11-26 09:09:00,43.0,41.0,29.92,SE,146,5.0,-999.0,92,-99.99,,,0.35,weatherlink.com 1.10,2013-11-26 14:09:00,
2013-11-26 09:24:00,43.2,41.0,29.92,ESE,118,4.0,-999.0,92,-99.99,,,0.35,weatherlink.com 1.10,2013-11-26 14:24:00,
2013-11-26 09:39:00,43.5,41.0,29.92,SE,143,0.0,-999.0,92,-99.99,,,0.36,weatherlink.com 1.10,2013-11-26 14:39:00,
2013-11-26 09:54:00,43.6,42.0,29.91,SE,137,7.0,-999.0,92,-99.99,,,0.36,weatherlink.com 1.10,2013-11-26 14:54:00,
2013-11-26 10:10:00,43.8,42.0,29.90,ESE,105,6.0,-999.0,92,-99.99,,,0.37,weatherlink.com 1.10,2013-11-26 15:10:00,
2013-11-26 10:24:00,44.0,42.0,29.89,SSE,157,4.0,-999.0,92,-99.99,,,0.37,weatherlink.com 1.10,2013-11-26 15:24:00,
2013-11-26 10:39:00,44.3,42.0,29.88,SE,134,2.0,-999.0,92,-99.99,,,0.38,weatherlink.com 1.10,2013-11-26 15:39:00,
2013-11-26 10:54:00,44.6,43.0,29.86,SE,143,9.0,-999.0,92,-99.99,,,0.38,weatherlink.com 1.10,2013-11-26 15:54:00,
2013-11-26 11:09:00,44.9,43.0,29.87,SSE,150,1.0,-999.0,92,-99.99,,,0.39,weatherlink.com 1.10,2013-11-26 16:09:00,
2013-11-26 11:24:00,44.9,43.0,29.85,East,88,6.0,-999.0,92,-99.99,,,0.40,weatherlink.com 1.10,2013-11-26 16:24:00,
2013-11-26 11:39:00,45.1,43.0,29.86,North,355,4.0,-999.0,92,-99.99,,,0.40,weatherlink.com 1.10,2013-11-26 16:39:00,
2013-11-26 11:54:00,45.4,43.0,29.86,North,5,5.0,-999.0,92,-99.99,,,0.41,weatherlink.com 1.10,2013-11-26 16:54:00,
2013-11-26 12:09:00,45.8,44.0,29.85,North,9,7.0,-999.0,92,-99.99,,,0.41,weatherlink.com 1.10,2013-11-26 17:09:00,
2013-11-26 12:24:00,45.0,43.0,29.84,NNE,12,12.0,-999.0,92,-99.99,,,0.42,weatherlink.com 1.10,2013-11-26 17:24:00,
2013-11-26 12:39:00,44.9,43.0,29.83,NNE,16,8.0,-999.0,92,-99.99,,,0.42,weatherlink.com 1.10,2013-11-26 17:39:00,
2013-11-26 12:54:00,45.4,43.0,29.81,NNE,20,4.0,-999.0,92,-99.99,,,0.43,weatherlink.com 1.10,2013-11-26 17:54:00,
2013-11-26 13:09:00,45.4,43.0,29.80,NNE,23,8.0,-999.0,92,-99.99,,,0.44,weatherlink.com 1.10,2013-11-26 18:09:00,
2013-11-26 13:25:00,43.7,42.0,29.79,NNE,19,4.0,-999.0,92,-99.99,,,0.44,weatherlink.com 1.10,2013-11-26 18:25:00,
2013-11-26 13:40:00,42.9,41.0,29.80,NNE,18,10.0,-999.0,92,-99.99,,,0.45,weatherlink.com 1.10,2013-11-26 18:40:00,
2013-11-26 13:55:00,42.3,40.0,29.81,NNE,12,6.0,-999.0,92,-99.99,,,0.45,weatherlink.com 1.10,2013-11-26 18:55:00,
2013-11-26 14:10:00,42.5,40.0,29.80,North,360,4.0,-999.0,92,-99.99,,,0.46,weatherlink.com 1.10,2013-11-26 19:10:00,
2013-11-26 14:25:00,42.4,40.0,29.80,NNE,19,9.0,-999.0,92,-99.99,,,0.46,weatherlink.com 1.10,2013-11-26 19:25:00,
2013-11-26 14:40:00,42.5,40.0,29.80,NNE,18,7.0,-999.0,92,-99.99,,,0.47,weatherlink.com 1.10,2013-11-26 19:40:00,
2013-11-26 14:55:00,42.9,41.0,29.79,NNE,13,6.0,-999.0,92,-99.99,,,0.47,weatherlink.com 1.10,2013-11-26 19:55:00,
2013-11-26 15:10:00,43.3,41.0,29.80,North,5,7.0,-999.0,92,-99.99,,,0.48,weatherlink.com 1.10,2013-11-26 20:10:00,
2013-11-26 15:25:00,43.3,41.0,29.80,NNE,19,7.0,-999.0,92,-99.99,,,0.48,weatherlink.com 1.10,2013-11-26 20:25:00,
2013-11-26 15:40:00,43.4,41.0,29.77,NNE,26,10.0,-999.0,92,-99.99,,,0.49,weatherlink.com 1.10,2013-11-26 20:40:00,
2013-11-26 15:55:00,43.3,41.0,29.79,North,349,6.0,-999.0,92,-99.99,,,0.49,weatherlink.com 1.10,2013-11-26 20:55:00,
2013-11-26 16:10:00,43.2,41.0,29.78,NNE,18,6.0,-999.0,92,-99.99,,,0.50,weatherlink.com 1.10,2013-11-26 21:10:00,
2013-11-26 16:25:00,43.0,41.0,29.78,NNE,32,8.0,-999.0,92,-99.99,,,0.50,weatherlink.com 1.10,2013-11-26 21:25:00,
2013-11-26 16:40:00,42.7,41.0,29.79,North,11,4.0,-999.0,92,-99.99,,,0.01,weatherlink.com 1.10,2013-11-26 21:40:00,
2013-11-26 16:55:00,42.4,40.0,29.80,NNE,15,11.0,-999.0,92,-99.99,,,0.01,weatherlink.com 1.10,2013-11-26 21:55:00,
2013-11-26 17:10:00,41.9,40.0,29.79,NNW,341,8.0,-999.0,92,-99.99,,,0.02,weatherlink.com 1.10,2013-11-26 22:10:00,
2013-11-26 17:25:00,41.0,41.0,29.79,NNW,339,8.0,-999.0,98,-99.99,,,0.02,weatherlink.com 1.10,2013-11-26 22:25:00,
2013-11-26 17:40:00,40.3,39.0,29.81,North,11,12.0,-999.0,93,-99.99,,,0.03,weatherlink.com 1.10,2013-11-26 22:40:00,
2013-11-26 17:55:00,39.7,38.0,29.81,North,355,10.0,-999.0,93,-99.99,,,0.03,weatherlink.com 1.10,2013-11-26 22:55:00,
2013-11-26 18:10:00,39.3,37.0,29.81,NNE,15,8.0,-999.0,92,-99.99,,,0.03,weatherlink.com 1.10,2013-11-26 23:10:00,
2013-11-26 18:25:00,39.1,37.0,29.82,NNE,27,12.0,-999.0,93,-99.99,,,0.04,weatherlink.com 1.10,2013-11-26 23:25:00,
2013-11-26 18:40:00,38.9,37.0,29.82,NNE,14,9.0,-999.0,92,-99.99,,,0.05,weatherlink.com 1.10,2013-11-26 23:40:00,
2013-11-26 18:55:00,38.8,37.0,29.83,North,5,9.0,-999.0,92,-99.99,,,0.05,weatherlink.com 1.10,2013-11-26 23:55:00,
2013-11-26 19:10:00,38.7,37.0,29.84,North,360,8.0,-999.0,93,-99.99,,,0.05,weatherlink.com 1.10,2013-11-27 00:10:00,
2013-11-26 19:25:00,38.6,37.0,29.84,NNE,13,8.0,-999.0,93,-99.99,,,0.06,weatherlink.com 1.10,2013-11-27 00:25:00,
2013-11-26 19:40:00,38.5,36.0,29.84,NNE,26,9.0,-999.0,92,-99.99,,,0.06,weatherlink.com 1.10,2013-11-27 00:40:00,
2013-11-26 19:55:00,38.4,36.0,29.84,NNE,14,17.0,-999.0,92,-99.99,,,0.07,weatherlink.com 1.10,2013-11-27 00:55:00,
2013-11-26 20:10:00,38.2,36.0,29.85,NNE,26,9.0,-999.0,93,-99.99,,,0.07,weatherlink.com 1.10,2013-11-27 01:10:00,
2013-11-26 20:25:00,38.1,36.0,29.86,North,360,13.0,-999.0,93,-99.99,,,0.07,weatherlink.com 1.10,2013-11-27 01:25:00,
2013-11-26 20:40:00,38.0,36.0,29.87,NNE,17,13.0,-999.0,93,-99.99,,,0.08,weatherlink.com 1.10,2013-11-27 01:40:00,
2013-11-26 20:55:00,37.9,36.0,29.84,NNE,32,14.0,-999.0,93,-99.99,,,0.08,weatherlink.com 1.10,2013-11-27 01:55:00,
2013-11-26 21:10:00,37.9,36.0,29.86,NE,35,21.0,-999.0,93,-99.99,,,0.09,weatherlink.com 1.10,2013-11-27 02:10:00,
2013-11-26 21:25:00,37.7,36.0,29.86,NNE,12,14.0,-999.0,93,-99.99,,,0.09,weatherlink.com 1.10,2013-11-27 02:25:00,
2013-11-26 21:40:00,37.6,36.0,29.85,NNW,331,7.0,-999.0,94,-99.99,,,0.09,weatherlink.com 1.10,2013-11-27 02:40:00,
2013-11-26 21:55:00,37.2,36.0,29.85,North,5,13.0,-999.0,94,-99.99,,,0.10,weatherlink.com 1.10,2013-11-27 02:55:00,
2013-11-26 22:10:00,37.1,36.0,29.84,North,5,16.0,-999.0,94,-99.99,,,0.10,weatherlink.com 1.10,2013-11-27 03:10:00,
2013-11-26 22:26:00,37.0,35.0,29.85,NE,40,21.0,-999.0,93,-99.99,,,0.11,weatherlink.com 1.10,2013-11-27 03:26:00,
2013-11-26 22:41:00,36.9,35.0,29.85,North,360,14.0,-999.0,93,-99.99,,,0.11,weatherlink.com 1.10,2013-11-27 03:41:00,
2013-11-26 22:56:00,36.6,35.0,29.86,North,5,24.0,-999.0,93,-99.99,,,0.12,weatherlink.com 1.10,2013-11-27 03:56:00,
2013-11-26 23:11:00,36.4,35.0,29.87,NNE,28,8.0,-999.0,93,-99.99,,,0.12,weatherlink.com 1.10,2013-11-27 04:11:00,
2013-11-26 23:26:00,36.2,34.0,29.87,NNE,32,14.0,-999.0,93,-99.99,,,0.12,weatherlink.com 1.10,2013-11-27 04:26:00,
2013-11-26 23:41:00,35.9,34.0,29.87,North,350,13.0,-999.0,94,-99.99,,,0.13,weatherlink.com 1.10,2013-11-27 04:41:00,
2013-11-26 23:56:00,35.2,34.0,29.87,NE,39,19.0,-999.0,94,-99.99,,,0.13,weatherlink.com 1.10,2013-11-27 04:56:00,